Time,TemperatureF,DewpointF,PressureIn,WindDirection,WindDirectionDegrees,WindSpeedMPH,WindSpeedGustMPH,Humidity,HourlyPrecipIn,Conditions,Clouds,dailyrainin,SoftwareType,DateUTC
2014-01-01 00:22:00,11.0,3.0,30.29,WNW,293,0.0,0.0,70,0.00,,,0.00,,2014-01-01 05:22:00,
2014-01-01 00:53:00,11.0,3.0,30.29,NNW,338,0.0,0.0,70,0.00,,,0.00,,2014-01-01 05:53:00,
2014-01-01 01:22:00,11.0,3.0,30.29,NNW,338,0.0,0.0,70,0.00,,,0.00,,2014-01-01 06:22:00,
2014-01-01 01:53:00,10.0,2.0,30.29,NNE,23,0.0,0.0,70,0.00,,,0.00,,2014-01-01 06:53:00,
2014-01-01 02:22:00,9.0,1.0,30.29,North,0,0.0,0.0,70,0.00,,,0.00,,2014-01-01 07:22:00,
2014-01-01 02:52:00,8.0,0.0,30.30,NNW,338,0.0,0.0,70,0.00,,,0.00,,2014-01-01 07:52:00,
2014-01-01 03:22:00,6.0,-2.0,30.30,NNW,338,0.0,0.0,69,0.00,,,0.00,,2014-01-01 08:22:00,
2014-01-01 03:52:00,5.0,-3.0,30.29,NNW,338,0.0,0.0,70,0.00,,,0.00,,2014-01-01 08:52:00,
2014-01-01 04:22:00,4.0,-3.0,30.30,WNW,293,0.0,0.0,71,0.00,,,0.00,,2014-01-01 09:22:00,
2014-01-01 04:53:00,3.0,-4.0,30.30,WNW,293,0.0,0.0,71,0.00,,,0.00,,2014-01-01 09:53:00,
2014-01-01 05:23:00,3.0,-4.0,30.29,WNW,293,0.0,0.0,72,0.00,,,0.00,,2014-01-01 10:23:00,
2014-01-01 05:53:00,3.0,-4.0,30.30,NW,315,0.0,0.0,73,0.00,,,0.00,,2014-01-01 10:53:00,
2014-01-01 06:22:00,4.0,-3.0,30.31,NW,315,0.0,0.0,73,0.00,,,0.00,,2014-01-01 11:22:00,
2014-01-01 06:53:00,5.0,-2.0,30.32,NW,315,0.0,0.0,73,0.00,,,0.00,,2014-01-01 11:53:00,
2014-01-01 07:22:00,6.0,0.0,30.32,NNW,338,0.0,0.0,74,0.00,,,0.00,,2014-01-01 12:22:00,
2014-01-01 07:52:00,7.0,0.0,30.33,NW,315,0.0,0.0,73,0.00,,,0.00,,2014-01-01 12:52:00,
2014-01-01 08:22:00,7.0,0.0,30.34,NNE,23,0.0,0.0,73,0.00,,,0.00,,2014-01-01 13:22:00,
2014-01-01 08:52:00,7.0,0.0,30.34,NNE,23,0.0,0.0,72,0.00,,,0.00,,2014-01-01 13:52:00,
2014-01-01 09:22:00,8.0,1.0,30.34,ESE,113,0.0,0.0,72,0.00,,,0.00,,2014-01-01 14:22:00,
2014-01-01 09:53:00,9.0,2.0,30.36,NE,45,0.0,0.0,71,0.00,,,0.00,,2014-01-01 14:53:00,
2014-01-01 10:22:00,10.0,3.0,30.36,North,0,0.0,0.0,71,0.00,,,0.00,,2014-01-01 15:22:00,
2014-01-01 10:53:00,11.0,3.0,30.37,North,0,0.0,0.0,70,0.00,,,0.00,,2014-01-01 15:53:00,
2014-01-01 11:23:00,12.0,4.0,30.37,North,0,0.0,0.0,69,0.00,,,0.00,,2014-01-01 16:23:00,
2014-01-01 11:53:00,13.0,5.0,30.37,NNE,23,0.0,0.0,69,0.00,,,0.00,,2014-01-01 16:53:00,
2014-01-01 12:22:00,13.0,4.0,30.35,NNW,338,2.0,3.0,68,0.00,,,0.00,,2014-01-01 17:22:00,
2014-01-01 12:52:00,13.0,4.0,30.35,NNE,23,0.0,0.0,67,0.00,,,0.00,,2014-01-01 17:52:00,
2014-01-01 13:22:00,14.0,5.0,30.33,ESE,113,1.0,0.0,66,0.00,,,0.00,,2014-01-01 18:22:00,
2014-01-01 13:53:00,14.0,4.0,30.32,NE,45,0.0,0.0,65,0.00,,,0.00,,2014-01-01 18:53:00,
2014-01-01 14:22:00,14.0,4.0,30.30,NNW,338,0.0,0.0,64,0.00,,,0.00,,2014-01-01 19:22:00,
2014-01-01 14:52:00,13.0,2.0,30.30,NE,45,0.0,0.0,62,0.00,,,0.00,,2014-01-01 19:52:00,
2014-01-01 15:22:00,13.0,2.0,30.29,East,90,0.0,0.0,62,0.00,,,0.00,,2014-01-01 20:22:00,
2014-01-01 15:53:00,13.0,2.0,30.29,East,90,2.0,2.0,61,0.00,,,0.00,,2014-01-01 20:53:00,
2014-01-01 16:22:00,12.0,2.0,30.29,NNE,23,0.0,0.0,62,0.00,,,0.00,,2014-01-01 21:22:00,
2014-01-01 16:54:00,12.0,2.0,30.30,East,90,2.0,3.0,63,0.00,,,0.00,,2014-01-01 21:54:00,
2014-01-01 17:23:00,12.0,2.0,30.30,NE,45,0.0,0.0,63,0.00,,,0.00,,2014-01-01 22:23:00,
2014-01-01 17:53:00,12.0,2.0,30.29,NNE,23,0.0,0.0,63,0.00,,,0.00,,2014-01-01 22:53:00,
2014-01-01 18:22:00,12.0,2.0,30.29,NNE,23,0.0,0.0,64,0.00,,,0.00,,2014-01-01 23:22:00,
2014-01-01 18:53:00,12.0,3.0,30.29,NE,45,0.0,3.0,65,0.00,,,0.00,,2014-01-01 23:53:00,
2014-01-01 19:22:00,13.0,4.0,30.28,NNE,23,0.0,0.0,68,0.00,,,0.00,,2014-01-02 00:22:00,
2014-01-01 19:52:00,13.0,5.0,30.28,NNE,23,0.0,0.0,70,0.00,,,0.00,,2014-01-02 00:52:00,
2014-01-01 20:22:00,13.0,6.0,30.28,NE,45,0.0,0.0,72,0.00,,,0.00,,2014-01-02 01:22:00,
2014-01-01 20:52:00,14.0,7.0,30.27,ENE,68,1.0,0.0,74,0.00,,,0.00,,2014-01-02 01:52:00,
2014-01-01 21:22:00,14.0,8.0,30.27,NNE,23,1.0,2.0,75,0.00,,,0.00,,2014-01-02 02:22:00,
2014-01-01 22:22:00,14.0,8.0,30.27,East,90,2.0,5.0,76,0.00,,,0.00,,2014-01-02 03:22:00,
2014-01-01 22:53:00,14.0,8.0,30.27,NNE,23,1.0,2.0,76,0.00,,,0.00,,2014-01-02 03:53:00,
2014-01-01 23:23:00,13.0,7.0,30.27,ENE,68,0.0,0.0,76,0.00,,,0.00,,2014-01-02 04:23:00,
2014-01-01 23:53:00,13.0,7.0,30.26,NE,45,2.0,5.0,76,0.00,,,0.00,,2014-01-02 04:53:00,